Main page
Satellite images Climate Cyclones Lightning AirportsFAQ Languages Contact Newsletter About
Weather : Europe Africa North America South America Asia Australia-Oceania Others

, Ranong, Ranong Airport

48532

latitude: , longitude: Thailand, elevation: 09-59N m


METAR: VTSR 200700Z 35006KT 270V040 9999 SCT025 34/26 Q1006 NOSIG